Location: Chacón
(10.5789°N, 66.9317°W)
Time: 03:56:53
(UTC+00:00)

Cosmos 962 Rocket - Pass Details

Date: 15 October 2025
Orbit: 950 x 998 km, 82.9° (Epoch: 17 November)

Event Time Altitude Azimuth Distance (km) Brightness Sun altitude
Rises 08:30:01 0° 6° (N) 3,692 7.6 -26.9°
Reaches altitude 10° 08:32:38 10° 11° (NNE) 2,738 6.9 -26.2°
Maximum altitude 08:38:41 49° 86° (E) 1,233 5.4 -24.7°
Drops below altitude 10° 08:44:38 10° 159° (SSE) 2,707 7.1 -23.3°
Sets 08:47:12 0° 165° (SSE) 3,646 7.8 -22.6°
